Time,TemperatureF,DewpointF,PressureIn,WindDirection,WindDirectionDegrees,WindSpeedMPH,WindSpeedGustMPH,Humidity,HourlyPrecipIn,Conditions,Clouds,dailyrainin,SolarRadiationWatts/m^2,SoftwareType,DateUTC
2013-02-11 00:21:00,11.0,8.0,-100.00,SE,138,4.0,6.0,86,0.00,,,0.09,0.000000,,2013-02-11 07:21:00,
2013-02-11 00:32:00,11.0,8.0,-100.00,SE,138,4.0,6.0,86,0.00,,,0.09,0.000000,,2013-02-11 07:32:00,
2013-02-11 00:41:00,11.0,8.0,-100.00,SE,138,4.0,6.0,86,0.00,,,0.09,0.000000,,2013-02-11 07:41:00,
2013-02-11 00:51:00,11.0,8.0,-100.00,SE,138,4.0,6.0,86,0.00,,,0.09,0.000000,,2013-02-11 07:51:00,
2013-02-11 01:21:00,10.0,6.0,-100.00,East,97,3.0,5.0,85,0.00,,,0.09,0.000000,,2013-02-11 08:21:00,
2013-02-11 01:31:00,10.0,6.0,-100.00,East,97,3.0,5.0,85,0.00,,,0.09,0.000000,,2013-02-11 08:31:00,
2013-02-11 01:42:00,10.0,6.0,-100.00,East,97,3.0,5.0,85,0.00,,,0.09,0.000000,,2013-02-11 08:42:00,
2013-02-11 01:52:00,10.0,6.0,-100.00,East,97,3.0,5.0,85,0.00,,,0.09,0.000000,,2013-02-11 08:52:00,
2013-02-11 02:12:00,10.0,6.0,-100.00,ESE,104,2.0,6.0,84,0.00,,,0.09,0.000000,,2013-02-11 09:12:00,
2013-02-11 02:21:00,10.0,6.0,-100.00,ESE,104,2.0,6.0,84,0.00,,,0.09,0.000000,,2013-02-11 09:21:00,
2013-02-11 02:31:00,10.0,6.0,-100.00,ESE,104,2.0,6.0,84,0.00,,,0.09,0.000000,,2013-02-11 09:31:00,
2013-02-11 02:41:00,10.0,6.0,-100.00,ESE,104,2.0,6.0,84,0.00,,,0.09,0.000000,,2013-02-11 09:41:00,
2013-02-11 02:51:00,10.0,6.0,-100.00,ESE,104,2.0,6.0,84,0.00,,,0.09,0.000000,,2013-02-11 09:51:00,
2013-02-11 03:21:00,10.0,6.0,-100.00,ENE,57,4.0,5.0,84,0.00,,,0.09,0.000000,,2013-02-11 10:21:00,
2013-02-11 03:31:00,10.0,6.0,-100.00,ENE,57,4.0,5.0,84,0.00,,,0.09,0.000000,,2013-02-11 10:31:00,
2013-02-11 03:41:00,10.0,6.0,-100.00,ENE,57,4.0,5.0,84,0.00,,,0.09,0.000000,,2013-02-11 10:41:00,
2013-02-11 03:51:00,10.0,6.0,-100.00,ENE,57,4.0,5.0,84,0.00,,,0.09,0.000000,,2013-02-11 10:51:00,
2013-02-11 04:22:00,10.0,6.0,-100.00,ENE,57,4.0,6.0,84,0.00,,,0.09,0.000000,,2013-02-11 11:22:00,
2013-02-11 04:32:00,10.0,6.0,-100.00,ENE,57,4.0,6.0,84,0.00,,,0.09,0.000000,,2013-02-11 11:32:00,
2013-02-11 04:42:00,10.0,6.0,-100.00,ENE,57,4.0,6.0,84,0.00,,,0.09,0.000000,,2013-02-11 11:42:00,
2013-02-11 04:52:00,10.0,6.0,-100.00,ENE,57,4.0,6.0,84,0.00,,,0.09,0.000000,,2013-02-11 11:52:00,
2013-02-11 05:22:00,10.0,6.0,-100.00,NE,47,3.0,5.0,85,0.00,,,-99.99,0.000000,,2013-02-11 12:22:00,
2013-02-11 05:31:00,10.0,6.0,-100.00,NE,47,3.0,5.0,85,0.00,,,-99.99,0.000000,,2013-02-11 12:31:00,
2013-02-11 05:42:00,10.0,6.0,-100.00,NE,47,3.0,5.0,85,0.00,,,-99.99,0.000000,,2013-02-11 12:42:00,
2013-02-11 05:52:00,10.0,6.0,-100.00,NE,47,3.0,5.0,85,0.00,,,-99.99,0.000000,,2013-02-11 12:52:00,
2013-02-11 06:21:00,10.0,6.0,-100.00,NNE,33,3.0,5.0,84,0.00,,,-99.99,0.000000,,2013-02-11 13:21:00,
2013-02-11 06:32:00,10.0,6.0,-100.00,NNE,33,3.0,5.0,84,0.00,,,-99.99,0.000000,,2013-02-11 13:32:00,
2013-02-11 06:41:00,10.0,6.0,-100.00,NNE,33,3.0,5.0,84,0.00,,,-99.99,0.000000,,2013-02-11 13:41:00,
2013-02-11 06:51:00,10.0,6.0,-100.00,NNE,33,3.0,5.0,84,0.00,,,-99.99,0.000000,,2013-02-11 13:51:00,
2013-02-11 07:21:00,10.0,6.0,-100.00,South,182,4.0,7.0,84,0.00,,,-99.99,0.000000,,2013-02-11 14:21:00,
2013-02-11 07:32:00,10.0,6.0,-100.00,South,182,4.0,7.0,84,0.00,,,-99.99,0.000000,,2013-02-11 14:32:00,
2013-02-11 07:42:00,10.0,6.0,-100.00,South,182,4.0,7.0,84,0.00,,,-99.99,0.000000,,2013-02-11 14:42:00,
2013-02-11 07:52:00,10.0,6.0,-100.00,South,182,4.0,7.0,84,0.00,,,-99.99,0.000000,,2013-02-11 14:52:00,
2013-02-11 08:22:00,9.0,5.0,-100.00,SE,144,2.0,7.0,83,0.00,,,0.09,5.000000,,2013-02-11 15:22:00,
2013-02-11 08:32:00,9.0,5.0,-100.00,SE,144,2.0,7.0,83,0.00,,,0.09,5.000000,,2013-02-11 15:32:00,
2013-02-11 08:42:00,9.0,5.0,-100.00,SE,144,2.0,7.0,83,0.00,,,0.09,5.000000,,2013-02-11 15:42:00,
2013-02-11 08:51:00,9.0,5.0,-100.00,SE,144,2.0,7.0,83,0.00,,,0.09,5.000000,,2013-02-11 15:51:00,
2013-02-11 09:21:00,12.0,8.0,-100.00,SSE,152,7.0,9.0,82,0.00,,,0.09,38.000000,,2013-02-11 16:21:00,
2013-02-11 09:32:00,12.0,8.0,-100.00,SSE,152,7.0,9.0,82,0.00,,,0.09,38.000000,,2013-02-11 16:32:00,
2013-02-11 09:42:00,12.0,8.0,-100.00,SSE,152,7.0,9.0,82,0.00,,,0.09,38.000000,,2013-02-11 16:42:00,
2013-02-11 09:52:00,12.0,8.0,-100.00,SSE,152,7.0,9.0,82,0.00,,,0.09,38.000000,,2013-02-11 16:52:00,
2013-02-11 10:21:00,12.0,7.0,-100.00,SSW,193,6.0,12.0,81,0.00,,,0.07,69.000000,,2013-02-11 17:21:00,
2013-02-11 10:32:00,12.0,7.0,-100.00,SSW,193,6.0,12.0,81,0.00,,,0.07,69.000000,,2013-02-11 17:32:00,
2013-02-11 10:42:00,12.0,7.0,-100.00,SSW,193,6.0,12.0,81,0.00,,,0.07,69.000000,,2013-02-11 17:42:00,
2013-02-11 10:52:00,12.0,7.0,-100.00,SSW,193,6.0,12.0,81,0.00,,,0.07,69.000000,,2013-02-11 17:52:00,
2013-02-11 11:21:00,13.0,8.0,-100.00,SW,216,8.0,12.0,79,0.00,,,0.06,80.000000,,2013-02-11 18:21:00,
2013-02-11 11:32:00,13.0,8.0,-100.00,SW,216,8.0,12.0,79,0.00,,,0.06,80.000000,,2013-02-11 18:32:00,
2013-02-11 11:42:00,13.0,8.0,-100.00,SW,216,8.0,12.0,79,0.00,,,0.06,80.000000,,2013-02-11 18:42:00,
2013-02-11 11:52:00,13.0,8.0,-100.00,SW,216,8.0,12.0,79,0.00,,,0.06,80.000000,,2013-02-11 18:52:00,
2013-02-11 12:21:00,16.0,10.0,-100.00,SSW,211,8.0,12.0,77,0.00,,,-99.99,253.000000,,2013-02-11 19:21:00,
2013-02-11 12:31:00,16.0,10.0,-100.00,SSW,211,8.0,12.0,77,0.00,,,-99.99,253.000000,,2013-02-11 19:31:00,
2013-02-11 12:41:00,16.0,10.0,-100.00,SSW,211,8.0,12.0,77,0.00,,,-99.99,253.000000,,2013-02-11 19:41:00,
2013-02-11 12:51:00,16.0,10.0,-100.00,SSW,211,8.0,12.0,77,0.00,,,-99.99,253.000000,,2013-02-11 19:51:00,
2013-02-11 13:21:00,16.0,10.0,-100.00,SSW,202,8.0,14.0,77,0.00,,,0.02,490.000000,,2013-02-11 20:21:00,
2013-02-11 13:31:00,16.0,10.0,-100.00,SSW,202,8.0,14.0,77,0.00,,,0.02,490.000000,,2013-02-11 20:31:00,
2013-02-11 13:41:00,16.0,10.0,-100.00,SSW,202,8.0,14.0,77,0.00,,,0.02,490.000000,,2013-02-11 20:41:00,
2013-02-11 13:52:00,16.0,10.0,-100.00,SSW,202,8.0,14.0,77,0.00,,,0.02,490.000000,,2013-02-11 20:52:00,
2013-02-11 14:21:00,13.0,7.0,-100.00,NW,319,5.0,14.0,78,0.00,,,0.00,439.000000,,2013-02-11 21:21:00,
2013-02-11 14:31:00,13.0,7.0,-100.00,NW,319,5.0,14.0,78,0.00,,,0.00,439.000000,,2013-02-11 21:31:00,
2013-02-11 14:41:00,13.0,7.0,-100.00,NW,319,5.0,14.0,78,0.00,,,0.00,439.000000,,2013-02-11 21:41:00,
2013-02-11 14:51:00,13.0,7.0,-100.00,NW,319,5.0,14.0,78,0.00,,,0.00,439.000000,,2013-02-11 21:51:00,
2013-02-11 15:21:00,14.0,8.0,-100.00,NNW,347,7.0,12.0,76,0.00,,,0.00,446.000000,,2013-02-11 22:21:00,
2013-02-11 15:32:00,14.0,8.0,-100.00,NNW,347,7.0,12.0,76,0.00,,,0.00,446.000000,,2013-02-11 22:32:00,
2013-02-11 15:41:00,14.0,8.0,-100.00,NNW,347,7.0,12.0,76,0.00,,,0.00,446.000000,,2013-02-11 22:41:00,
2013-02-11 15:52:00,14.0,8.0,-100.00,NNW,347,7.0,12.0,76,0.00,,,0.00,446.000000,,2013-02-11 22:52:00,
2013-02-11 16:21:00,10.0,5.0,-100.00,NNW,337,7.0,13.0,78,0.00,,,0.00,313.000000,,2013-02-11 23:21:00,
2013-02-11 16:31:00,10.0,5.0,-100.00,NNW,337,7.0,13.0,78,0.00,,,0.00,313.000000,,2013-02-11 23:31:00,
2013-02-11 16:41:00,10.0,5.0,-100.00,NNW,337,7.0,13.0,78,0.00,,,0.00,313.000000,,2013-02-11 23:41:00,
2013-02-11 16:52:00,10.0,5.0,-100.00,NNW,337,7.0,13.0,78,0.00,,,0.00,313.000000,,2013-02-11 23:52:00,
2013-02-11 17:21:00,8.0,3.0,-100.00,North,358,7.0,12.0,79,0.00,,,0.00,135.000000,,2013-02-12 00:21:00,
2013-02-11 17:32:00,8.0,3.0,-100.00,North,358,7.0,12.0,79,0.00,,,0.00,135.000000,,2013-02-12 00:32:00,
2013-02-11 17:42:00,8.0,3.0,-100.00,North,358,7.0,12.0,79,0.00,,,0.00,135.000000,,2013-02-12 00:42:00,
2013-02-11 17:51:00,8.0,3.0,-100.00,North,358,7.0,12.0,79,0.00,,,0.00,135.000000,,2013-02-12 00:51:00,
2013-02-11 18:21:00,5.0,0.0,-100.00,NNW,342,6.0,12.0,81,0.00,,,0.00,34.000000,,2013-02-12 01:21:00,
2013-02-11 18:31:00,5.0,0.0,-100.00,NNW,342,6.0,12.0,81,0.00,,,0.00,34.000000,,2013-02-12 01:31:00,
2013-02-11 18:41:00,5.0,0.0,-100.00,NNW,342,6.0,12.0,81,0.00,,,0.00,34.000000,,2013-02-12 01:41:00,
2013-02-11 18:51:00,5.0,0.0,-100.00,NNW,342,6.0,12.0,81,0.00,,,0.00,34.000000,,2013-02-12 01:51:00,
2013-02-11 19:21:00,4.0,-1.0,-100.00,North,2,7.0,15.0,80,0.00,,,0.00,1.000000,,2013-02-12 02:21:00,
2013-02-11 19:31:00,4.0,-1.0,-100.00,North,2,7.0,15.0,80,0.00,,,0.00,1.000000,,2013-02-12 02:31:00,
2013-02-11 19:41:00,4.0,-1.0,-100.00,North,2,7.0,15.0,80,0.00,,,0.00,1.000000,,2013-02-12 02:41:00,
2013-02-11 19:52:00,4.0,-1.0,-100.00,North,2,7.0,15.0,80,0.00,,,0.00,1.000000,,2013-02-12 02:52:00,
2013-02-11 20:21:00,3.0,-2.0,-100.00,NNE,18,6.0,13.0,78,0.00,,,0.00,0.000000,,2013-02-12 03:21:00,
2013-02-11 20:31:00,3.0,-2.0,-100.00,NNE,18,6.0,13.0,78,0.00,,,0.00,0.000000,,2013-02-12 03:31:00,
2013-02-11 20:41:00,3.0,-2.0,-100.00,NNE,18,6.0,13.0,78,0.00,,,0.00,0.000000,,2013-02-12 03:41:00,
2013-02-11 20:51:00,3.0,-2.0,-100.00,NNE,18,6.0,13.0,78,0.00,,,0.00,0.000000,,2013-02-12 03:51:00,
2013-02-11 21:11:00,2.0,-4.0,-100.00,NNE,30,5.0,10.0,77,0.00,,,0.00,0.000000,,2013-02-12 04:11:00,
2013-02-11 21:21:00,2.0,-4.0,-100.00,NNE,30,5.0,10.0,77,0.00,,,0.00,0.000000,,2013-02-12 04:21:00,
2013-02-11 21:31:00,2.0,-4.0,-100.00,NNE,30,5.0,10.0,77,0.00,,,0.00,0.000000,,2013-02-12 04:31:00,
2013-02-11 21:41:00,2.0,-4.0,-100.00,NNE,30,5.0,10.0,77,0.00,,,0.00,0.000000,,2013-02-12 04:41:00,
2013-02-11 21:51:00,2.0,-4.0,-100.00,NNE,30,5.0,10.0,77,0.00,,,0.00,0.000000,,2013-02-12 04:51:00,
2013-02-11 22:21:00,3.0,-3.0,-100.00,NNE,19,6.0,10.0,77,0.00,,,0.00,0.000000,,2013-02-12 05:21:00,
2013-02-11 22:31:00,3.0,-3.0,-100.00,NNE,19,6.0,10.0,77,0.00,,,0.00,0.000000,,2013-02-12 05:31:00,
2013-02-11 22:42:00,3.0,-3.0,-100.00,NNE,19,6.0,10.0,77,0.00,,,0.00,0.000000,,2013-02-12 05:42:00,
2013-02-11 22:52:00,3.0,-3.0,-100.00,NNE,19,6.0,10.0,77,0.00,,,0.00,0.000000,,2013-02-12 05:52:00,
2013-02-11 23:12:00,2.0,-4.0,-100.00,NNE,13,5.0,8.0,77,0.00,,,0.00,0.000000,,2013-02-12 06:12:00,
2013-02-11 23:21:00,2.0,-4.0,-100.00,NNE,13,5.0,8.0,77,0.00,,,0.00,0.000000,,2013-02-12 06:21:00,
2013-02-11 23:31:00,2.0,-4.0,-100.00,NNE,13,5.0,8.0,77,0.00,,,0.00,0.000000,,2013-02-12 06:31:00,
2013-02-11 23:42:00,2.0,-4.0,-100.00,NNE,13,5.0,8.0,77,0.00,,,0.00,0.000000,,2013-02-12 06:42:00,
2013-02-11 23:51:00,2.0,-4.0,-100.00,NNE,13,5.0,8.0,77,0.00,,,0.00,0.000000,,2013-02-12 06:51:00,